Moses Lake, WA
on Tuesday, November 27, 2012

Tuesday
Previous Day Next Day
Daily Summary
 ActualAverageRecord
Temperature
Mean Temperature °F 33°F  
Max Temperature 32°F 40°F 53°F (2011)
Min Temperature 26°F 26°F -6°F (1985)
Degree Days
Heating Degree Days 36 32  
Month to date heating degree days 655 725  
Since 1 July heating degree days 1180 1362  
Cooling Degree Days 0 0  
Month to date cooling degree days 0 0  
Year to date cooling degree days 719 615  
Moisture
Dew Point 26°F   
Average Humidity 92    
Maximum Humidity 100    
Minimum Humidity 84    
Precipitation
Precipitation 0.00 in 0.04 in 0.37 in (1986)
Month to date precipitation 1.05 1.06  
Year to date precipitation 7.65 7.53  
Wind
Wind Speed 1 mph   
Max Wind Speed 6 mph   
Max Gust Speed 7 mph   
Visibility 3 miles   
Events Fog   

Key: T is trace of precipitation, MM is missing value
Source: NWS Daily Summary
Time(PST)TemperatureDew PointHumidity Pressure Visibility Wind DirectionWind SpeedGust SpeedPrecipitationEvents Conditions
12:52 AM 27.0°F 24.1°F 89% 30.27 in 10.0 miles NNE 4.6 mph - N/A   Clear
1:52 AM 27.0°F 24.1°F 89% 30.26 in 10.0 miles NNE 4.6 mph - N/A   Clear
2:52 AM 27.0°F 24.1°F 89% 30.27 in 10.0 miles Calm Calm - N/A   Clear
3:52 AM 26.1°F 23.0°F 88% 30.26 in 8.0 miles Calm Calm - N/A   Clear
4:06 AM 26.6°F 24.8°F 93% 30.22 in 7.0 miles Calm Calm - N/A   Scattered Clouds
4:15 AM 26.6°F 24.8°F 93% 30.22 in 6.0 miles Calm Calm - N/A   Mostly Cloudy
4:22 AM 26.6°F 24.8°F 93% 30.22 in 1.8 miles Calm Calm - N/A   Mostly Cloudy
4:32 AM 26.6°F 24.8°F 93% 30.23 in 0.5 miles Calm Calm - N/A Fog Light Freezing Fog
4:52 AM 27.0°F 24.1°F 89% 30.27 in 0.5 miles Calm Calm - N/A Fog Light Freezing Fog
5:01 AM 26.6°F 24.8°F 93% 30.23 in 0.5 miles Calm Calm - N/A Fog Light Freezing Fog
5:16 AM 26.6°F 24.8°F 93% 30.23 in 0.2 miles Calm Calm - N/A Fog Light Freezing Fog
5:52 AM 27.0°F 24.1°F 89% 30.27 in 0.2 miles Calm Calm - N/A Fog Light Freezing Fog
6:14 AM 26.6°F 24.8°F 93% 30.23 in 1.0 miles Calm Calm - N/A   Mist
6:22 AM 26.6°F 24.8°F 93% 30.23 in 0.8 miles Calm Calm - N/A   Mist
6:44 AM 26.6°F 24.8°F 93% 30.22 in 0.2 miles Calm Calm - N/A Fog Light Freezing Fog
6:52 AM 27.0°F 24.1°F 89% 30.27 in 0.2 miles Calm Calm - N/A Fog Light Freezing Fog
7:07 AM 26.6°F 24.8°F 93% 30.23 in 0.2 miles Calm Calm - N/A Fog Light Freezing Fog
7:15 AM 26.6°F 24.8°F 93% 30.23 in 0.2 miles Calm Calm - N/A Fog Light Freezing Fog
7:52 AM 27.0°F 26.1°F 96% 30.29 in 0.2 miles Calm Calm - N/A Fog Light Freezing Fog
8:36 AM 28.4°F 26.6°F 93% 30.25 in 1.0 miles Calm Calm - N/A   Overcast
8:41 AM 28.4°F 26.6°F 93% 30.25 in 3.0 miles Calm Calm - N/A   Overcast
8:52 AM 28.9°F 27.0°F 92% 30.29 in 3.0 miles Calm Calm - N/A   Overcast
9:10 AM 28.4°F 26.6°F 93% 30.25 in 2.0 miles Calm Calm - N/A   Overcast
9:52 AM 30.0°F 26.1°F 85% 30.29 in 2.0 miles Calm Calm - N/A   Overcast
10:52 AM 30.0°F 28.0°F 92% 30.29 in 2.0 miles SSE 3.5 mph - N/A   Overcast
11:52 AM 30.9°F 28.9°F 92% 30.27 in 2.0 miles Calm Calm - N/A   Overcast
12:52 PM 30.9°F 28.0°F 89% 30.25 in 2.0 miles Calm Calm - N/A   Overcast
1:52 PM 32.0°F 28.9°F 88% 30.24 in 3.0 miles SSE 4.6 mph - N/A   Overcast
2:52 PM 30.9°F 28.0°F 89% 30.23 in 9.0 miles SSE 4.6 mph - N/A   Overcast
3:52 PM 30.9°F 28.0°F 89% 30.22 in 8.0 miles SSE 4.6 mph - N/A   Overcast
4:52 PM 30.0°F 28.0°F 92% 30.20 in 8.0 miles SE 3.5 mph - N/A   Overcast
5:52 PM 30.9°F 28.0°F 89% 30.21 in 8.0 miles SSE 3.5 mph - N/A   Overcast
6:52 PM 30.9°F 28.0°F 89% 30.20 in 6.0 miles Calm Calm - N/A   Overcast
7:52 PM 30.9°F 28.9°F 92% 30.19 in 0.5 miles Calm Calm - N/A Fog Light Freezing Fog
8:09 PM 30.2°F 28.4°F 93% 30.15 in 2.5 miles Calm Calm - N/A   Overcast
8:41 PM 30.2°F 28.4°F 93% 30.14 in 1.5 miles Calm Calm - N/A   Overcast
8:52 PM 30.9°F 28.0°F 89% 30.18 in 1.5 miles Calm Calm - N/A   Overcast
9:36 PM 30.2°F 28.4°F 93% 30.14 in 0.5 miles SSE 3.5 mph - N/A Fog Light Freezing Fog
9:52 PM 30.9°F 28.0°F 89% 30.17 in 0.5 miles Calm Calm - N/A Fog Light Freezing Fog
10:52 PM 30.9°F 28.9°F 92% 30.17 in 0.5 miles Calm Calm - N/A Fog Light Freezing Fog
11:34 PM 30.2°F 28.4°F 93% 30.12 in 0.2 miles Calm Calm - N/A Fog Light Freezing Fog
11:52 PM 30.0°F 28.9°F 96% 30.16 in 0.5 miles Calm Calm - N/A Fog Light Freezing Fog
Moon Phase
Nov. 27 Nov. 28 Dec. 06 Dec. 13 Dec. 20
Sunrise:07:18 AM (PST) Moon Rise:03:46 PM (PST)11/27
Sunset:04:11 PM (PST) Moon Set:06:26 AM (PST)11/27

Copyright © 2014 The Weather Underground, Inc.